(216350) = 2007 YJ44

Discovered at Kitt Peak on 2007-12-30 by Spacewatch.

Orbit

Orbit type: Main Belt

Note: WebGL enabled browser required.

epoch2023-02-25.0
epoch JD2460000.5
perihelion date2019-11-16.02170
perihelion JD2458803.52170
argument of perihelion (°)213.94621
ascending node (°)110.31939
inclination (°)9.47071
eccentricity0.1645418
perihelion distance (AU)2.3126672
Tisserand w.r.t. Jupiter3.3
ΔV w.r.t. Earth (km/sec)10.0
semimajor axis (AU)2.7681424
mean anomaly (°)256.15773
mean daily motion (°/day)0.21400370
aphelion distance (AU)3.224
period (years)4.61
P-vector [x]0.80459540
P-vector [y]-0.50171164
P-vector [z]-0.31766598
Q-vector [x]0.57342521
Q-vector [y]0.79544428
Q-vector [z]0.19609162
absolute magnitude16.18
phase slope0.15
uncertainty0
referenceMPO 745323
observations used430
oppositions17
arc length (days)7974
first opposition used2001
last opposition used2023
residual rms (arc-secs)0.73
perturbers coarse indicatorM-v
perturbers precise indicator003Ek
first observation date used2001-08-25.0
last observation date used2023-06-25.0
computer nameMPCLINUX
JD of orbit computation2456877.765542
perihelion JD uncertainty (days)1.2825E-04
argument of perihelion uncertainty (°)4.8016E-05
ascending node uncertainty (°)4.1333E-05
inclination uncertainty (°)7.0835E-06
eccentricity uncertainty 6.6955E-08
perihelion distance uncertainty (AU)2.0296E-07
Minimum Orbit Intersection Distances (in AU)
for orbit epoch: 2460000.5, reference: E2023-ME7
Mercury1.89407
Venus1.58527
Earth1.30536
Mars0.92933
Jupiter2.08905
Saturn5.95566
Uranus15.2625
Neptune27.0958

Observations

447 total observations over interval: 2001 08 25.28243 – 2023 06 25.194218
These data are available for download (format description).

Date (UT) J2000 RA J2000 Dec Magn Location Ref
2001 08 25.28243 00 02 02.72 -14 07 32.3 19.1   644 – Palomar Mountain/NEAT MPS 254579
2001 08 25.30308 00 02 02.09 -14 07 43.4 19.3   644 – Palomar Mountain/NEAT MPS 254579
2001 08 25.32386 00 02 01.45 -14 07 54.0 19.3   644 – Palomar Mountain/NEAT MPS 254579
2001 09 11.26761 23 51 15.07 -16 31 00.5   704 – Lincoln Laboratory ETS, New Mexico MPS 406959
2001 09 11.28192 23 51 14.43 -16 31 06.8   704 – Lincoln Laboratory ETS, New Mexico MPS 406959
2001 09 11.29695 23 51 13.72 -16 31 12.2   704 – Lincoln Laboratory ETS, New Mexico MPS 406960
2001 09 11.31167 23 51 13.05 -16 31 20.0   704 – Lincoln Laboratory ETS, New Mexico MPS 406960
2001 09 11.32568 23 51 12.34 -16 31 25.6   704 – Lincoln Laboratory ETS, New Mexico MPS 406960
2001 09 22.19670 23 42 53.99 -17 43 00.0 19.6   644 – Palomar Mountain/NEAT MPS 254579
2001 09 22.21819 23 42 53.00 -17 43 07.3 20.0   644 – Palomar Mountain/NEAT MPS 254579
2001 09 22.23969 23 42 51.98 -17 43 14.2 19.9   644 – Palomar Mountain/NEAT MPS 254579
2001 10 15.16016 23 29 08.17 -18 38 09.1 20.9   644 – Palomar Mountain/NEAT MPS 254579
2001 10 15.17070 23 29 07.93 -18 38 08.9 20.5   644 – Palomar Mountain/NEAT MPS 254579
2001 10 15.18124 23 29 07.62 -18 38 09.0 19.8   644 – Palomar Mountain/NEAT MPS 254579
2004 03 17.30130 11 28 40.77 +16 12 43.7 21.2 V 691 – Steward Observatory, Kitt Peak-Spacewatch MPS 267586
2005 06 27.26121 17 00 47.26 -15 37 44.0 19.4 V G96 – Mt. Lemmon Survey MPS 254579
2005 06 27.26670 17 00 46.98 -15 37 45.2 19.3 V G96 – Mt. Lemmon Survey MPS 254579
2005 06 27.27214 17 00 46.69 -15 37 46.4 19.5 V G96 – Mt. Lemmon Survey MPS 254579
2006 09 30.37928 03 26 07.36 +04 46 04.9 19.4 V 703 – Catalina Sky Survey MPS 254579
2006 09 30.39098 03 26 07.18 +04 46 05.3 19.7 V 703 – Catalina Sky Survey MPS 254579
2006 09 30.40270 03 26 06.93 +04 46 02.1 19.3 V 703 – Catalina Sky Survey MPS 254579
2006 09 30.41443 03 26 06.72 +04 45 58.5 19.4 V 703 – Catalina Sky Survey MPS 254579
2006 10 16.42302 03 18 26.10 +03 39 37.6 19.8 V 703 – Catalina Sky Survey MPS 254579
2006 10 16.43057 03 18 25.88 +03 39 36.5 19.0 V 703 – Catalina Sky Survey MPS 254579
2006 10 16.43810 03 18 25.34 +03 39 32.1 19.1 V 703 – Catalina Sky Survey MPS 254579
2006 10 16.44565 03 18 25.20 +03 39 30.9 19.5 V 703 – Catalina Sky Survey MPS 254579
2006 10 22.38017 03 14 04.16 +03 16 16.2 20.5 V 703 – Catalina Sky Survey MPS 254579
2006 10 22.38788 03 14 03.84 +03 16 12.0 20.1 V 703 – Catalina Sky Survey MPS 254579
2006 10 22.39562 03 14 03.33 +03 16 08.6 18.3 V 703 – Catalina Sky Survey MPS 254579
2006 10 22.40336 03 14 03.15 +03 16 05.5 18.8 V 703 – Catalina Sky Survey MPS 254579
2006 11 13.21958 02 54 47.05 +02 20 04.6 19.8 V 703 – Catalina Sky Survey MPS 254579
2006 11 13.22601 02 54 46.54 +02 20 04.9 19.4 V 703 – Catalina Sky Survey MPS 254579
2006 11 13.23250 02 54 46.26 +02 20 05.6 20.0 V 703 – Catalina Sky Survey MPS 254579
2006 11 13.23897 02 54 45.86 +02 20 03.9 19.4 V 703 – Catalina Sky Survey MPS 254579
2006 11 13.24798 02 54 45.43 +02 20 04.5 19.3 V 703 – Catalina Sky Survey MPS 254579
2006 11 13.25515 02 54 45.07 +02 20 02.6 19.0 V 703 – Catalina Sky Survey MPS 254579
2006 11 13.26206 02 54 44.53 +02 20 02.7 19.2 V 703 – Catalina Sky Survey MPS 254579
2006 11 13.26895 02 54 44.24 +02 20 01.8 19.5 V 703 – Catalina Sky Survey MPS 254579
2006 11 19.24034 02 49 33.70 +02 16 37.7 19.6 V 703 – Catalina Sky Survey MPS 254579
2006 11 19.24640 02 49 33.27 +02 16 37.3 19.6 V 703 – Catalina Sky Survey MPS 254579
2006 11 19.25248 02 49 33.06 +02 16 36.1 18.6 V 703 – Catalina Sky Survey MPS 254579
2006 11 19.25852 02 49 32.66 +02 16 38.3 19.3 V 703 – Catalina Sky Survey MPS 254579
2007 12 30.40156 09 05 33.85 +19 34 21.6 20.8 V 691 – Steward Observatory, Kitt Peak-Spacewatch MPS 232693
2007 12 30.41919 09 05 33.26 +19 34 27.2 21.1 V 691 – Steward Observatory, Kitt Peak-Spacewatch MPS 232693
2007 12 30.43683 09 05 32.67 +19 34 32.8 20.8 V 691 – Steward Observatory, Kitt Peak-Spacewatch MPS 232693
2007 12 31.33112 09 05 03.87 +19 39 07.0 21.5 V G96 – Mt. Lemmon Survey MPS 232693
2007 12 31.33978 09 05 03.58 +19 39 10.0 20.8 V G96 – Mt. Lemmon Survey MPS 232693
2007 12 31.34826 09 05 03.30 +19 39 13.0 20.7 V G96 – Mt. Lemmon Survey MPS 232693
2007 12 31.35685 09 05 02.97 +19 39 14.9 21.1 V G96 – Mt. Lemmon Survey MPS 232693
2008 01 18.35885 08 52 10.17 +21 21 12.2 20.7 V 691 – Steward Observatory, Kitt Peak-Spacewatch MPS 254579
2008 01 18.37726 08 52 09.22 +21 21 18.8 20.6 V 691 – Steward Observatory, Kitt Peak-Spacewatch MPS 254579
2008 01 18.39542 08 52 08.28 +21 21 25.0 20.8 V 691 – Steward Observatory, Kitt Peak-Spacewatch MPS 254579
2008 02 10.32942 08 31 50.70 +23 26 01.3 20.7 V G96 – Mt. Lemmon Survey MPS 254579
2008 02 10.34112 08 31 50.08 +23 26 04.3 20.7 V G96 – Mt. Lemmon Survey MPS 254579
2008 02 10.35271 08 31 49.51 +23 26 07.5 20.9 V G96 – Mt. Lemmon Survey MPS 254579
2008 02 10.36421 08 31 48.90 +23 26 10.5 20.7 V G96 – Mt. Lemmon Survey MPS 254579
2009 03 28.35670 13 36 37.54 +04 56 43.2 20.6 V G96 – Mt. Lemmon Survey MPS 282622
2009 03 28.36361 13 36 37.22 +04 56 46.3 20.5 V G96 – Mt. Lemmon Survey MPS 282622
2009 03 28.37043 13 36 36.97 +04 56 48.6 20.5 V G96 – Mt. Lemmon Survey MPS 282622
2009 03 28.37734 13 36 36.61 +04 56 51.2 20.5 V G96 – Mt. Lemmon Survey MPS 282622
2009 04 24.81213 13 14 49.57 +07 11 23.6 19.7 V A50 – Andrushivka Astronomical Observatory MPS 286443
2009 04 24.81372 13 14 49.59 +07 11 23.4 20.4 V A50 – Andrushivka Astronomical Observatory MPS 286443
2009 04 24.81529 13 14 49.45 +07 11 23.8 20.9 V A50 – Andrushivka Astronomical Observatory MPS 286443
2009 04 24.85312 13 14 47.68 +07 11 31.0 19.7 V A50 – Andrushivka Astronomical Observatory MPS 286443
2010 08 29.406970 21 08 20.866 -25 23 33.90 19.60 r F51 – Pan-STARRS 1, Haleakala MPS 365264
2010 08 29.418950 21 08 20.339 -25 23 38.15 19.61 r F51 – Pan-STARRS 1, Haleakala MPS 365264
2010 08 30.388125 21 07 46.497 -25 28 26.95 19.22 i F51 – Pan-STARRS 1, Haleakala MPS 365264
2010 08 30.399403 21 07 46.084 -25 28 30.21 19.26 i F51 – Pan-STARRS 1, Haleakala MPS 365264
2011 11 30.52557 05 43 48.686 +16 10 30.86 21.1 g F51 – Pan-STARRS 1, Haleakala MPS 403672
2011 11 30.53832 05 43 48.005 +16 10 31.96 21.0 g F51 – Pan-STARRS 1, Haleakala MPS 403672
2011 12 06.52603 05 38 16.636 +16 18 50.71 20.0 i F51 – Pan-STARRS 1, Haleakala MPS 404180
2011 12 06.54092 05 38 15.690 +16 18 51.64 20.5 i F51 – Pan-STARRS 1, Haleakala MPS 404180
2011 12 07.33565 05 37 30.541 +16 20 05.40 20.0 i F51 – Pan-STARRS 1, Haleakala MPS 404180
2011 12 07.34853 05 37 29.767 +16 20 06.48 20.2 i F51 – Pan-STARRS 1, Haleakala MPS 404180
2011 12 26.27159 05 19 13.40 +16 56 56.0 20.3 V G96 – Mt. Lemmon Survey MPS 405769
2011 12 26.27948 05 19 12.97 +16 56 57.5 20.2 V G96 – Mt. Lemmon Survey MPS 405769
2011 12 26.28733 05 19 12.54 +16 56 58.5 20.3 V G96 – Mt. Lemmon Survey MPS 405769
2011 12 26.29513 05 19 12.10 +16 56 59.7 20.1 V G96 – Mt. Lemmon Survey MPS 405769
2013 02 15.13049 10 43 13.08 +18 01 43.6 20.5 R J04 – ESA Optical Ground Station, Tenerife MPS 457136
2013 02 15.14206 10 43 12.55 +18 01 49.8 20.4 R J04 – ESA Optical Ground Station, Tenerife MPS 457136
2013 02 15.15364 10 43 11.98 +18 01 53.3 20.4 R J04 – ESA Optical Ground Station, Tenerife MPS 457136
2013 02 15.16521 10 43 11.43 +18 01 58.5 21.0 R J04 – ESA Optical Ground Station, Tenerife MPS 457136
2013 03 11.30561 10 23 36.67 +20 27 30.9 20.7 V G96 – Mt. Lemmon Survey MPS 460341
2013 03 11.31503 10 23 36.24 +20 27 34.5 21.1 V G96 – Mt. Lemmon Survey MPS 460341
2013 03 11.32464 10 23 35.73 +20 27 36.9 21.4 V G96 – Mt. Lemmon Survey MPS 460341
2013 03 11.33422 10 23 35.26 +20 27 39.3 20.9 V G96 – Mt. Lemmon Survey MPS 460341
2014 02 28.55450 15 56 45.743 -09 54 19.66 21.2 w F51 – Pan-STARRS 1, Haleakala MPS 505098
2014 02 28.56644 15 56 46.225 -09 54 19.01 21.1 w F51 – Pan-STARRS 1, Haleakala MPS 505098
2014 02 28.59030 15 56 47.167 -09 54 18.38 21.3 w F51 – Pan-STARRS 1, Haleakala MPS 505098
2014 04 01.39858 16 07 47.23 -08 57 35.7 20.3 V G96 – Mt. Lemmon Survey MPS 509515
2014 04 01.40604 16 07 47.22 -08 57 34.1 20.6 V G96 – Mt. Lemmon Survey MPS 509515
2014 04 01.41349 16 07 47.18 -08 57 33.1 20.6 V G96 – Mt. Lemmon Survey MPS 509515
